Cotulla, TX

5:22 AM CST on November 20, 2019 (GMT -0600)
Cotulla-La Salle County

Weather History for KCOT - August, 2019

Change the Weather History Date:

Monday, August 12, 2019

  Actual Average Record
Temperature  
Mean Temperature 92 °F -  
Max Temperature 107 °F 97 °F 107 °F (2016)
Min Temperature 78 °F 73 °F 69 °F (2017)
Cooling Degree Days 27    
Growing Degree Days 42 (Base 50)    
Moisture  
Dew Point 70 °F    
Average Humidity 55    
Maximum Humidity 90    
Minimum Humidity 21    
Precipitation  
Precipitation 0.00 in - - ()
Sea Level Pressure  
Sea Level Pressure 29.85 in    
Wind  
Wind Speed 10 mph (SE)    
Max Wind Speed 20 mph    
Max Gust Speed 25 mph    
Visibility 10 miles    
Events      
Averages and records for this station are not official NWS values.
T = Trace of Precipitation, MM = Missing Value Source: NWS Daily Summary

Daily Weather History Graph

Daily Weather History Graph

Search for Another Location

Airport or City:

Astronomy

Aug. 12, 2019 Rise Set
Actual Time 7:04 AM CDT 8:18 PM CDT
Civil Twilight 6:39 AM CDT 8:43 PM CDT
Nautical Twilight 6:10 AM CDT 9:13 PM CDT
Astronomical Twilight 5:39 AM CDT 9:43 PM CDT
Moon 6:39 PM CDT (8/12) 4:26 AM CDT (8/12)
Length of Visible Light 14h 03m
Length of Day
13h 14m
Waxing Gibbous, 93% of the Moon is Illuminated
Aug 12
Waxing Gibbous
Aug 15
Full
Aug 23
Last Quarter
Aug 30
New
Sep 5
First Quarter

Hourly Weather History & Observations

Time (CDT) Temp. Heat Index Dew Point Humidity Pressure Visibility Wind Dir Wind Speed Gust Speed Precip Events Conditions
12:53 AM 86.0 °F 93.8 °F 73.9 °F 67% 29.90 in 10.0 mi SE 11.5 mph - N/A   Clear
1:53 AM 84.0 °F 91.2 °F 73.9 °F 72% 29.91 in 10.0 mi SSE 11.5 mph - N/A   Clear
2:53 AM 82.9 °F 89.4 °F 73.9 °F 74% 29.89 in 10.0 mi SSE 9.2 mph - N/A   Clear
3:53 AM 81.0 °F 86.2 °F 73.9 °F 79% 29.87 in 10.0 mi SSE 8.1 mph - N/A   Clear
4:53 AM 80.1 °F 84.5 °F 73.9 °F 81% 29.87 in 10.0 mi SSE 6.9 mph - N/A   Clear
5:53 AM 79.0 °F - 73.9 °F 84% 29.88 in 10.0 mi SE 8.1 mph - N/A   Clear
6:53 AM 78.1 °F - 75.0 °F 90% 29.89 in 10.0 mi ESE 8.1 mph - N/A   Clear
7:53 AM 80.1 °F 85.4 °F 75.9 °F 87% 29.90 in 10.0 mi SE 10.4 mph - N/A   Clear
8:53 AM 82.9 °F 90.8 °F 75.9 °F 79% 29.91 in 10.0 mi SSE 11.5 mph 18.4 mph N/A   Partly Cloudy
9:53 AM 86.0 °F 95.1 °F 75.0 °F 70% 29.93 in 10.0 mi South 8.1 mph - N/A   Partly Cloudy
10:53 AM 90.0 °F 97.9 °F 73.0 °F 57% 29.92 in 10.0 mi SSE 9.2 mph - N/A   Clear
11:53 AM 93.9 °F 102.1 °F 72.0 °F 49% 29.91 in 10.0 mi Variable 5.8 mph 16.1 mph N/A   Clear
12:53 PM 97.0 °F 103.5 °F 70.0 °F 41% 29.89 in 10.0 mi North - - N/A   Clear
1:53 PM 99.0 °F 104.2 °F 68.0 °F 36% 29.86 in 10.0 mi SE 5.8 mph - N/A   Clear
2:53 PM 102.0 °F 106.6 °F 66.0 °F 31% 29.83 in 10.0 mi Calm Calm - N/A   Clear
3:53 PM 104.0 °F 105.3 °F 61.0 °F 24% 29.81 in 10.0 mi Calm Calm - N/A   Clear
4:53 PM 105.1 °F 105.7 °F 59.0 °F 22% 29.78 in 10.0 mi North - - N/A   Partly Cloudy
5:53 PM 106.0 °F 106.4 °F 57.9 °F 21% 29.76 in 10.0 mi SE 10.4 mph - N/A   Clear
6:53 PM 106.0 °F 106.4 °F 57.9 °F 21% 29.74 in 10.0 mi South 6.9 mph - N/A   Partly Cloudy
7:53 PM 102.9 °F 106.1 °F 64.0 °F 28% 29.75 in 10.0 mi SE 19.6 mph 25.3 mph N/A   Partly Cloudy
8:53 PM 96.1 °F 103.5 °F 71.1 °F 44% 29.78 in 10.0 mi SSE 17.3 mph 23.0 mph N/A   Clear
9:53 PM 93.0 °F 100.7 °F 72.0 °F 50% 29.80 in 10.0 mi SE 15.0 mph - N/A   Clear
10:53 PM 90.0 °F 97.9 °F 73.0 °F 57% 29.82 in 10.0 mi SSE 13.8 mph - N/A   Clear
11:53 PM 88.0 °F 95.6 °F 73.0 °F 61% 29.83 in 10.0 mi SSE 16.1 mph - N/A   Clear